Wind_Speed
18 18 18 21 23 25 27 28 28 30 31 31 31 31 30 30 28 28 27 28 27 27 26 25 24 23 22 20 20 19 19 17 15 15 16 17 19 18 18 20 23 26 28 27 27 24 24
22 22 22 21 21 22 24 25 26 27 30 30 31 32 30 29 29 30 31 31 27 26 26 25 24 25 23 21 21 21 20 20 19 17 18 18 19 19 18 20 22 25 27 28 26 24 22
27 28 27 26 25 26 26 27 27 26 26 28 29 30 30 31 33 31 28 28 27 26 25 23 24 25 24 25 24 23 21 22 22 19 20 20 20 19 20 21 22 24 26 28 27 24 21
30 31 32 32 31 30 30 32 32 31 31 31 31 31 30 30 31 31 29 28 28 27 26 24 25 24 24 25 25 24 22 22 22 21 22 22 21 20 20 21 22 24 24 27 26 25 22
34 34 33 33 33 33 33 34 35 35 36 35 36 35 34 33 32 33 32 31 29 28 28 29 27 28 23 23 23 25 24 24 24 23 24 22 22 23 23 22 22 23 24 26 26 24 21
37 36 34 33 32 33 34 35 36 38 38 38 37 37 36 35 33 34 34 33 31 29 28 30 27 29 26 26 26 27 27 29 26 25 25 24 23 25 26 24 23 24 24 25 26 22 21
40 39 38 37 35 35 34 34 35 35 36 37 37 38 38 38 37 37 38 36 35 32 32 32 30 30 32 31 28 30 32 29 28 29 29 28 27 27 26 25 25 25 25 26 27 25 21
45 44 43 42 40 39 39 40 38 37 37 36 37 37 36 37 37 38 38 37 39 37 32 33 35 36 36 35 35 33 28 29 32 33 32 31 30 30 29 27 27 26 26 27 28 26 25
50 48 48 48 48 47 47 44 42 42 42 41 39 39 39 38 39 39 39 40 41 41 42 39 37 36 36 32 30 32 35 34 32 32 33 34 33 32 30 30 30 28 27 29 29 29 28
54 54 52 51 52 52 51 50 48 46 45 45 44 45 45 44 43 43 44 44 44 44 45 46 43 37 35 32 34 36 36 35 32 35 35 33 31 31 30 30 32 29 29 30 32 33 32
55 55 54 50 52 51 53 54 53 51 48 49 49 47 47 48 48 48 48 47 47 48 50 48 44 41 40 41 38 37 35 38 36 36 35 35 35 33 33 33 33 32 32 32 33 35 36
58 57 56 56 57 58 58 56 57 55 53 51 51 50 50 50 51 49 49 50 51 50 53 49 49 46 47 47 42 42 40 41 42 41 38 37 36 34 34 34 34 35 34 35 37 38 40
65 64 62 62 60 61 63 59 58 61 57 56 54 56 56 54 55 54 53 54 56 56 50 50 49 50 50 48 46 45 46 44 44 48 44 41 40 40 39 39 38 37 37 39 42 41 40
69 68 70 70 64 63 63 63 62 62 63 57 52 56 55 55 53 53 55 55 59 59 50 47 47 49 50 49 48 47 48 47 46 46 48 48 46 44 44 43 44 41 40 39 41 43 43
74 73 71 69 68 62 61 58 59 58 59 53 51 48 50 50 49 45 43 52 51 45 47 48 51 51 52 52 53 52 52 52 48 47 48 51 51 50 46 42 43 44 42 41 43 43 45
80 73 71 69 65 64 62 60 58 54 53 48 48 49 49 46 44 45 40 46 46 40 42 45 49 51 53 51 54 52 52 53 51 47 46 47 47 47 43 43 42 42 42 42 44 46 48
79 78 71 66 64 63 60 60 57 55 56 52 53 51 49 47 48 48 50 46 47 46 48 49 49 51 52 53 54 53 56 55 51 50 48 45 46 48 46 45 44 44 44 46 47 49 48
88 82 77 72 65 63 65 62 66 60 56 53 55 54 52 51 50 48 48 47 50 50 53 54 55 55 55 53 55 59 52 51 52 52 53 52 51 50 49 48 46 46 45 45 47 49 49
87 83 78 70 71 71 62 60 60 57 59 58 59 56 55 56 57 54 53 51 51 51 53 55 56 55 56 57 60 58 57 54 54 52 51 48 47 45 45 46 46 44 43 42 43 47 48
83 86 80 73 65 63 62 62 61 58 60 60 59 58 57 55 54 54 54 53 55 55 57 57 56 56 56 57 58 55 52 54 52 48 50 50 47 43 41 42 44 43 44 42 42 43 41
78 75 76 72 69 64 64 64 61 61 60 62 61 61 60 59 58 57 58 59 58 57 58 58 57 55 56 57 55 53 54 55 54 53 51 49 48 47 47 46 46 44 45 44 43 40 41
75 73 71 67 67 65 66 67 66 64 65 65 63 61 61 62 63 63 62 60 58 58 58 59 57 57 58 57 56 57 56 56 56 54 51 52 52 53 52 52 53 49 46 45 41 39 37
80 76 72 75 74 72 71 66 64 62 63 63 63 65 69 65 62 63 62 62 60 62 61 59 59 60 60 58 58 59 57 57 55 56 56 55 53 54 50 48 48 49 45 45 39 40 36
80 80 80 77 73 73 70 72 73 74 70 69 67 68 70 67 65 64 64 66 65 66 65 63 62 61 60 59 60 59 56 55 56 55 59 55 52 50 47 44 43 42 39 39 38 35 36
80 79 78 80 80 78 75 73 70 72 74 74 70 70 69 71 71 69 66 63 62 60 62 60 63 62 61 61 61 59 58 57 55 56 55 51 47 46 46 45 43 43 42 40 34 32 31
80 77 75 73 81 81 80 81 77 75 71 78 73 72 69 68 67 64 63 59 58 58 60 60 58 57 57 57 57 57 57 57 56 54 53 46 46 45 46 46 45 43 41 37 33 31 29
69 70 71 72 69 66 67 73 75 70 64 65 63 60 61 63 57 56 58 60 59 59 61 59 56 54 55 56 57 56 55 54 51 49 45 43 46 46 47 48 46 43 41 36 32 29 28
69 70 67 65 64 60 57 59 59 57 56 59 58 57 58 60 59 59 58 57 58 56 55 54 53 54 54 54 54 52 50 50 49 45 44 43 48 49 47 46 47 44 41 36 32 34 34
62 66 66 63 62 61 60 58 56 54 55 56 56 53 53 54 54 52 52 50 50 50 51 51 53 51 53 52 51 48 50 52 50 49 48 50 48 45 45 45 44 44 41 40 38 36 35
Wind_Direction
264 269 268 261 258 258 261 261 262 265 268 271 276 280 285 286 287 291 294 293 294 295 300 303 309 315 312 305 301 301 303 306 309 314 313 311 317 320 321 321 326 329 330 329 327 333 338
266 267 268 269 269 267 267 265 266 271 273 274 276 279 281 284 288 293 297 299 298 297 298 305 310 315 316 306 299 296 299 301 304 304 310 309 309 311 317 318 320 324 328 329 328 330 338
267 269 269 269 270 272 274 275 274 275 276 278 278 279 282 285 288 289 290 293 295 296 301 303 306 309 316 308 299 297 299 300 303 304 306 308 306 305 310 316 319 321 326 327 329 327 334
263 266 269 269 272 274 274 276 279 280 279 279 279 281 282 284 286 287 290 290 292 294 296 298 303 302 312 311 298 296 301 302 299 303 305 304 302 302 307 310 315 318 323 324 329 327 329
262 263 264 267 270 272 273 275 276 276 277 279 283 283 283 283 284 285 286 288 289 292 297 298 300 302 304 303 305 301 301 303 298 299 306 304 304 304 306 309 312 313 319 322 326 325 324
259 259 261 263 267 270 272 276 279 279 278 278 278 279 280 282 284 285 287 287 285 289 292 293 297 301 302 301 302 302 298 299 297 299 302 299 301 302 307 308 309 311 314 316 317 322 321
259 260 262 263 265 268 270 272 275 280 283 281 283 284 285 287 286 286 288 288 287 286 289 290 295 300 303 303 301 301 301 298 298 302 301 300 298 296 300 305 308 307 308 310 314 316 315
256 259 261 262 266 268 270 273 274 276 278 282 285 286 287 286 286 286 287 288 288 290 284 283 291 297 299 298 297 299 298 296 298 300 298 298 300 299 297 300 302 304 306 305 310 312 311
257 257 261 266 268 269 269 268 270 272 273 275 277 281 284 286 287 287 288 289 290 292 292 292 291 294 295 297 294 293 294 294 293 291 294 298 300 299 297 297 300 301 303 304 305 308 307
261 261 261 264 267 267 269 269 268 269 270 273 274 276 279 281 281 281 283 285 288 290 291 294 295 298 297 297 294 295 295 293 292 293 294 295 297 295 295 299 300 303 301 304 306 305 304
258 261 263 261 262 266 268 268 269 268 268 271 273 274 276 278 280 281 282 283 284 287 290 294 294 294 294 294 293 296 291 291 292 292 293 296 297 299 298 299 300 300 299 300 302 302 300
258 258 261 265 266 265 265 268 269 268 269 271 274 275 274 275 277 279 282 283 284 285 286 290 291 292 292 292 293 291 290 291 293 292 292 293 295 298 296 297 297 298 298 298 298 298 300
261 262 261 264 266 269 269 266 268 268 269 273 272 272 272 275 277 278 278 280 283 282 286 286 286 285 286 289 289 290 290 288 288 291 291 289 289 293 294 291 292 296 295 297 294 295 295
257 260 264 265 266 266 267 268 268 270 273 272 270 275 274 277 277 278 280 279 280 285 286 285 285 285 286 287 287 288 287 286 287 291 288 290 290 294 292 291 292 293 295 293 291 291 291
258 261 262 264 265 265 266 268 268 269 270 272 273 270 274 274 273 274 274 275 277 280 281 284 285 287 288 289 288 288 287 289 293 292 290 289 288 288 289 290 291 292 291 289 286 286 286
255 255 257 259 259 262 264 266 265 264 266 267 268 270 270 266 266 269 268 270 272 276 281 281 282 284 286 288 289 290 291 294 298 300 296 293 289 288 288 289 292 291 291 291 287 286 286
256 256 253 252 254 257 259 260 259 260 262 261 259 261 264 265 264 264 264 262 268 276 283 282 282 283 285 285 285 289 288 291 297 298 298 297 294 294 292 291 292 290 291 292 288 285 282
257 256 253 252 251 251 252 254 261 259 259 257 257 255 260 264 263 264 266 267 271 277 279 281 280 281 283 284 285 282 287 290 294 292 293 295 297 298 296 296 294 293 293 292 291 290 284
253 253 251 249 251 254 256 256 256 256 256 257 256 256 259 260 263 266 267 269 273 273 274 276 278 280 281 280 281 282 285 289 289 290 292 296 295 297 298 295 293 294 293 291 290 291 291
251 254 251 251 252 252 253 254 255 254 254 254 256 258 259 261 265 268 272 271 271 273 274 277 280 279 279 279 280 284 286 287 289 289 291 293 293 294 296 298 298 297 292 288 286 285 288
247 248 250 249 246 252 253 251 251 251 253 255 257 260 261 263 265 269 270 271 271 274 276 277 278 279 276 278 280 284 285 287 289 290 291 290 288 289 289 293 297 295 293 288 284 282 280
252 251 245 246 249 250 250 250 252 252 253 256 259 263 263 263 264 264 267 271 274 276 276 277 278 275 276 280 282 283 282 284 286 286 287 290 289 290 289 289 290 293 288 287 286 284 279
246 247 249 249 245 247 248 251 254 255 257 256 258 261 265 262 263 265 269 272 272 272 273 277 275 274 277 278 278 281 281 281 283 284 287 291 289 293 291 288 289 287 288 285 284 280 276
247 247 248 248 247 248 248 249 253 252 251 254 254 258 261 261 261 265 267 267 270 273 274 274 275 276 276 276 277 278 278 277 280 281 285 286 289 288 288 287 287 289 292 292 285 276 273
253 249 246 246 245 244 245 247 249 254 255 257 255 257 262 261 262 263 267 270 271 270 273 273 273 273 275 276 275 274 274 274 278 280 281 286 285 286 284 283 286 289 288 287 283 275 269
249 253 256 249 247 244 248 247 252 251 254 257 259 261 265 267 266 268 269 268 268 271 271 271 273 274 275 273 272 272 272 274 277 278 281 279 278 281 284 285 285 286 287 283 274 271 270
246 247 249 252 251 250 249 249 252 255 258 261 261 261 264 269 269 267 266 269 270 271 273 273 273 272 271 271 272 273 274 276 277 278 276 275 277 280 282 281 283 285 282 277 272 274 265
241 240 242 247 249 251 250 251 252 251 254 258 262 262 261 264 264 266 270 269 270 269 269 271 270 271 271 270 271 273 273 274 276 276 274 277 279 280 275 276 276 279 278 273 268 265 263
241 239 238 240 242 245 248 251 253 253 253 255 257 259 260 261 266 264 263 264 266 268 269 269 269 268 267 267 265 266 266 267 271 272 274 279 277 275 273 273 274 273 268 267 267 265 261
Height
5846 5847 5848 5849 5849 5850 5850 5850 5850 5850 5849 5849 5848 5847 5847 5845 5844 5843 5842 5840 5838 5835 5834 5831 5828 5825 5823 5821 5819 5816 5814 5810 5807 5804 5801 5799 5796 5793 5790 5787 5783 5779 5776 5773 5770 5766 5762
5841 5842 5844 5844 5845 5845 5846 5845 5845 5844 5844 5844 5843 5842 5841 5841 5840 5839 5837 5836 5834 5831 5829 5827 5824 5822 5820 5818 5814 5811 5809 5807 5804 5800 5798 5795 5792 5789 5785 5782 5779 5776 5772 5769 5766 5762 5758
5836 5837 5838 5838 5839 5839 5840 5840 5840 5839 5838 5838 5837 5836 5835 5834 5833 5833 5831 5830 5828 5827 5824 5822 5819 5817 5815 5813 5810 5807 5805 5803 5800 5797 5794 5791 5787 5784 5781 5778 5774 5771 5768 5765 5762 5759 5755
5830 5831 5832 5832 5832 5833 5833 5834 5834 5833 5833 5832 5831 5830 5829 5827 5827 5827 5826 5825 5823 5822 5820 5817 5815 5811 5810 5808 5806 5803 5801 5797 5796 5793 5791 5787 5784 5780 5776 5773 5770 5766 5763 5759 5757 5754 5751
5824 5825 5826 5826 5827 5827 5828 5828 5827 5826 5826 5825 5825 5824 5823 5821 5821 5820 5820 5819 5818 5817 5815 5813 5811 5807 5806 5804 5801 5799 5797 5794 5791 5788 5786 5783 5781 5778 5773 5769 5766 5761 5757 5755 5752 5749 5748
5818 5818 5818 5818 5819 5819 5819 5820 5820 5821 5820 5819 5817 5817 5817 5815 5814 5813 5813 5813 5812 5811 5809 5807 5806 5804 5802 5799 5797 5794 5791 5789 5786 5783 5781 5778 5775 5773 5769 5765 5762 5758 5755 5750 5747 5746 5743
5810 5811 5812 5811 5811 5812 5811 5811 5812 5813 5813 5813 5812 5812 5811 5809 5808 5808 5808 5806 5807 5807 5804 5800 5798 5798 5795 5793 5791 5788 5785 5783 5782 5779 5775 5772 5770 5766 5763 5760 5757 5754 5750 5746 5742 5740 5737
5801 5802 5802 5803 5803 5803 5803 5803 5804 5804 5804 5804 5805 5805 5804 5803 5801 5800 5800 5799 5798 5797 5799 5798 5794 5791 5789 5787 5785 5782 5779 5778 5775 5773 5769 5767 5765 5761 5758 5754 5751 5748 5745 5741 5738 5734 5732
5791 5790 5793 5795 5796 5795 5795 5795 5794 5795 5796 5795 5795 5795 5794 5795 5795 5794 5792 5791 5790 5789 5787 5789 5787 5785 5784 5782 5778 5777 5774 5770 5768 5765 5762 5760 5758 5753 5751 5749 5745 5742 5739 5735 5732 5728 5725
5782 5782 5782 5784 5786 5786 5786 5787 5786 5786 5786 5786 5785 5786 5786 5786 5787 5785 5784 5783 5782 5780 5778 5779 5777 5776 5774 5773 5771 5768 5766 5764 5762 5759 5756 5752 5749 5746 5744 5742 5739 5736 5733 5730 5726 5722 5719
5771 5773 5775 5773 5773 5775 5776 5776 5777 5776 5775 5775 5776 5776 5776 5775 5775 5775 5775 5774 5773 5771 5769 5769 5767 5765 5765 5764 5761 5760 5756 5754 5751 5749 5748 5746 5742 5739 5737 5735 5731 5729 5726 5722 5719 5715 5711
5760 5760 5763 5767 5765 5764 5763 5766 5767 5766 5766 5766 5766 5766 5765 5765 5765 5764 5764 5762 5762 5763 5758 5762 5760 5758 5755 5753 5752 5749 5747 5745 5741 5740 5739 5736 5734 5731 5727 5726 5723 5720 5717 5714 5711 5707 5704
5746 5749 5750 5751 5752 5752 5753 5752 5753 5755 5754 5755 5754 5754 5755 5755 5756 5755 5753 5753 5752 5749 5750 5750 5748 5746 5744 5743 5741 5741 5739 5736 5732 5729 5728 5727 5725 5722 5719 5716 5714 5711 5708 5705 5701 5697 5697
5731 5735 5738 5738 5741 5740 5740 5742 5741 5742 5744 5744 5743 5743 5743 5744 5744 5744 5744 5744 5740 5739 5740 5738 5738 5735 5733 5731 5730 5728 5728 5727 5723 5720 5716 5714 5713 5712 5709 5706 5703 5701 5699 5696 5690 5688 5685
5716 5720 5722 5723 5725 5728 5728 5731 5730 5729 5728 5731 5731 5731 5733 5733 5733 5732 5733 5730 5729 5730 5730 5729 5727 5724 5724 5722 5720 5717 5715 5713 5712 5709 5708 5702 5702 5700 5697 5695 5693 5690 5687 5684 5679 5678 5674
5701 5701 5703 5709 5710 5714 5717 5718 5718 5718 5719 5718 5719 5720 5721 5721 5720 5720 5719 5718 5718 5721 5718 5716 5715 5714 5711 5709 5707 5704 5703 5701 5698 5697 5693 5691 5689 5688 5687 5684 5682 5679 5677 5674 5669 5666 5663
5682 5685 5688 5688 5693 5697 5700 5703 5705 5707 5706 5706 5706 5706 5709 5710 5709 5708 5704 5706 5708 5711 5710 5707 5706 5704 5701 5699 5698 5695 5694 5691 5688 5686 5682 5679 5678 5677 5674 5673 5670 5668 5666 5664 5659 5656 5654
5662 5667 5670 5674 5676 5678 5681 5684 5688 5692 5693 5692 5692 5692 5695 5698 5697 5695 5696 5699 5700 5701 5698 5696 5695 5695 5693 5688 5687 5686 5685 5681 5680 5677 5673 5670 5666 5664 5663 5660 5658 5655 5654 5651 5647 5646 5643
5645 5648 5652 5656 5658 5663 5666 5668 5671 5677 5678 5677 5677 5680 5682 5684 5682 5687 5687 5688 5687 5687 5685 5683 5682 5682 5680 5677 5674 5674 5673 5673 5669 5666 5663 5660 5656 5653 5652 5650 5647 5644 5642 5638 5635 5633 5633
5622 5629 5635 5638 5643 5646 5650 5652 5655 5661 5662 5661 5664 5665 5669 5671 5674 5675 5675 5674 5673 5672 5670 5669 5670 5670 5666 5664 5662 5660 5661 5659 5658 5655 5653 5649 5647 5645 5642 5638 5636 5634 5630 5626 5623 5621 5621
5605 5610 5615 5621 5625 5630 5634 5635 5637 5644 5646 5645 5649 5653 5653 5657 5662 5660 5659 5659 5659 5658 5657 5657 5656 5656 5653 5651 5651 5650 5647 5645 5646 5643 5641 5638 5636 5631 5630 5628 5626 5622 5618 5615 5612 5610 5607
5586 5592 5596 5602 5608 5613 5617 5620 5621 5626 5628 5629 5635 5636 5638 5642 5643 5643 5645 5651 5648 5643 5642 5641 5642 5642 5638 5640 5638 5634 5636 5633 5632 5631 5627 5625 5622 5617 5617 5614 5611 5610 5606 5604 5602 5599 5596
5566 5573 5578 5583 5587 5592 5596 5601 5603 5605 5609 5615 5618 5619 5618 5625 5626 5628 5632 5635 5633 5625 5629 5628 5628 5624 5626 5626 5621 5621 5621 5619 5619 5616 5615 5612 5609 5603 5605 5599 5597 5596 5594 5592 5590 5587 5586
5544 5553 5558 5565 5570 5573 5576 5580 5584 5585 5592 5596 5601 5600 5600 5607 5610 5613 5614 5614 5616 5614 5608 5615 5612 5612 5613 5610 5606 5608 5607 5605 5605 5604 5601 5599 5596 5592 5589 5586 5584 5584 5582 5580 5579 5577 5577
5521 5529 5538 5545 5549 5553 5557 5561 5564 5567 5572 5576 5582 5583 5582 5585 5591 5597 5597 5598 5599 5598 5596 5597 5598 5597 5596 5594 5591 5590 5593 5591 5593 5590 5588 5586 5583 5579 5576 5574 5574 5573 5571 5570 5568 5568 5566
5503 5509 5515 5522 5530 5535 5538 5543 5547 5550 5552 5554 5565 5567 5561 5565 5578 5578 5580 5583 5584 5583 5580 5582 5583 5581 5580 5578 5576 5573 5575 5577 5575 5576 5574 5573 5571 5568 5565 5563 5561 5561 5560 5559 5557 5558 5558
5482 5489 5496 5502 5510 5517 5523 5527 5531 5534 5536 5537 5548 5552 5547 5549 5559 5564 5564 5567 5566 5567 5563 5567 5567 5565 5565 5563 5561 5561 5562 5561 5560 5560 5561 5560 5558 5555 5554 5549 5550 5550 5548 5548 5549 5553 5549
5462 5470 5477 5486 5494 5500 5506 5511 5515 5519 5524 5523 5533 5537 5536 5536 5541 5546 5549 5550 5552 5551 5549 5553 5550 5551 5550 5548 5547 5546 5546 5545 5547 5548 5547 5547 5545 5544 5542 5539 5538 5538 5537 5539 5539 5538 5539
5444 5452 5461 5470 5479 5486 5493 5498 5502 5506 5510 5513 5518 5524 5524 5522 5527 5531 5532 5535 5536 5536 5535 5536 5536 5537 5534 5534 5533 5533 5534 5533 5534 5533 5534 5533 5532 5531 5530 5528 5527 5526 5526 5526 5527 5528 5529